Theta_e
333 334 336 335 336 334 335 335 338 338 337 335 334 333 333 333 333 335 335 333 331 332 330 328 326 328 333 334 336 330 329 331 323 323 326 328 325 324 325 326 327 326 323
333 334 336 335 334 336 334 335 335 335 336 336 334 332 331 332 334 333 331 331 332 330 328 325 327 332 330 333 333 330 329 329 325 319 321 322 322 324 324 324 325 326 324
331 333 335 335 334 335 335 335 335 335 335 334 334 332 332 332 332 332 332 332 331 331 330 330 332 331 329 331 329 329 328 328 324 321 319 322 322 323 322 322 321 322 323
331 332 333 335 335 336 336 334 334 335 333 333 332 333 332 331 332 332 332 332 332 333 334 333 332 333 331 330 331 332 328 324 323 321 320 320 321 322 321 317 315 319 319
330 331 333 334 334 335 334 334 334 333 334 333 332 332 332 331 331 332 332 331 331 330 333 334 334 327 320 324 335 331 328 324 321 319 318 318 318 319 318 319 315 317 317
329 330 332 332 332 332 334 335 334 333 333 333 332 331 332 330 309 314 323 331 331 329 327 329 332 326 320 311 315 319 326 324 320 319 319 317 318 317 319 318 316 315 311
329 329 331 331 331 333 330 332 334 334 333 332 331 331 333 329 308 310 313 331 330 330 330 332 331 330 329 329 312 312 312 312 317 323 320 320 318 319 317 314 316 318 318
327 328 329 331 330 331 329 332 334 335 332 330 330 331 331 323 306 307 309 331 331 331 331 332 331 332 326 328 327 325 324 324 323 325 324 324 322 320 319 318 321 326 325
326 327 328 330 330 329 328 331 336 335 331 330 331 331 328 325 304 305 318 329 327 327 328 330 325 320 304 307 320 318 318 316 309 308 309 306 306 308 318 324 324 320 316
325 327 329 330 331 329 330 331 334 336 330 332 330 330 319 327 303 303 317 325 323 324 323 319 303 319 303 309 323 322 319 320 321 322 319 312 315 314 310 329 328 321 319
326 327 328 332 334 334 333 332 332 335 334 329 326 330 330 326 323 303 308 324 324 324 322 317 316 301 303 307 313 328 324 327 320 327 329 330 329 329 328 331 334 326 323
325 326 328 332 332 333 333 331 331 333 332 329 326 329 329 328 313 304 302 312 313 325 321 320 309 298 301 306 313 302 304 315 330 328 328 327 327 327 331 333 330 329 329
325 326 328 331 332 335 332 330 327 330 331 329 327 327 327 328 327 303 303 303 305 326 331 311 298 296 297 303 300 301 302 327 327 325 325 325 325 329 333 329 327 325 324
325 326 328 328 330 334 332 330 326 325 325 330 328 327 326 327 327 329 328 323 306 320 309 317 313 309 305 312 313 314 326 328 327 326 326 328 327 325 323 323 320 318 315
327 326 327 327 328 332 333 330 327 330 320 325 330 329 329 326 327 320 322 328 330 324 326 327 325 326 322 322 324 326 328 328 326 326 324 321 319 320 319 320 319 318 314
330 326 325 326 326 328 330 329 298 304 303 304 299 314 327 313 305 305 305 305 304 303 326 326 325 324 323 324 323 323 324 319 324 322 320 318 316 317 317 319 319 318 316
331 330 326 322 325 325 327 328 327 317 303 305 299 300 303 309 302 301 298 297 298 305 328 327 326 323 322 322 323 323 323 324 327 323 321 320 319 319 316 318 318 318 318
334 310 328 325 325 324 325 326 327 327 326 325 304 307 301 299 298 297 296 303 322 316 328 328 328 326 324 322 322 322 323 324 323 323 323 323 322 319 318 317 317 317 317
330 327 328 327 326 322 325 324 324 324 325 325 325 307 299 294 294 294 296 328 326 326 327 328 328 327 326 324 323 323 324 324 324 324 324 324 324 321 319 318 317 302 307
333 315 319 328 325 325 323 323 323 322 322 322 323 323 320 309 316 319 320 324 325 326 327 326 325 325 326 325 324 324 323 323 325 325 325 325 325 323 319 318 317 316 315
331 330 316 327 327 325 323 323 323 322 321 321 322 322 308 322 321 320 319 320 320 320 321 322 321 322 325 325 325 324 324 324 325 324 325 325 325 321 323 322 320 319 317
332 332 329 327 328 326 324 323 323 322 322 322 322 319 297 324 320 321 323 324 323 324 324 325 321 321 323 323 324 325 323 323 325 325 324 323 324 323 322 321 319 319 316
331 331 331 330 329 317 324 324 323 322 322 323 323 322 320 324 323 322 323 326 328 328 329 328 326 325 325 324 325 325 322 323 325 325 324 323 322 322 322 321 318 318 315
331 331 330 329 330 328 328 327 325 311 321 322 324 324 324 325 326 325 325 326 327 328 329 329 328 326 327 328 326 325 323 324 325 324 324 323 322 318 320 319 317 317 312
331 332 332 332 330 329 329 329 329 325 324 323 325 325 324 328 327 327 328 329 329 329 329 329 329 328 327 326 326 325 316 294 315 307 322 323 323 323 320 318 318 316 312
329 331 331 332 331 331 331 331 330 330 326 327 327 327 327 325 327 329 330 330 329 329 331 332 332 330 329 328 327 314 295 292 307 295 321 324 322 321 320 318 317 313 308
Wind_Speed
8 7 5 5 3 2 2 1 1 2 4 6 6 5 6 7 6 6 5 4 4 5 6 5 4 3 2 4 4 4 3 4 6 3 2 7 13 13 15 15 14 12 10
9 7 5 4 4 4 3 3 1 3 4 6 6 5 3 6 5 6 6 5 4 6 6 5 4 3 4 6 4 5 4 3 6 10 8 7 14 15 15 15 11 9 8
9 9 6 5 6 5 3 3 3 4 3 5 9 7 8 7 6 4 4 5 5 5 6 6 6 7 3 4 4 3 3 4 9 9 7 8 12 12 12 12 11 11 8
9 9 8 5 6 6 5 2 3 6 4 3 5 6 5 6 6 5 6 6 4 6 4 5 4 6 8 6 6 7 7 8 10 10 9 10 10 10 10 11 10 8 8
9 8 6 6 6 8 8 5 4 6 7 5 6 7 5 5 4 6 4 7 6 5 4 7 7 9 13 4 6 8 10 10 9 12 9 10 10 10 10 9 10 8 5
10 9 12 8 6 4 7 6 4 8 8 6 6 7 6 4 11 10 4 6 7 6 5 5 5 7 11 11 11 10 10 13 11 9 9 11 7 10 10 9 11 10 5
10 10 9 7 9 4 4 9 6 7 7 6 6 6 6 8 8 6 9 5 4 7 5 6 6 6 8 10 13 15 14 13 8 11 12 10 12 12 11 10 10 7 8
11 11 9 9 10 6 5 9 7 7 8 6 3 7 9 7 5 5 2 6 6 7 7 6 6 9 8 9 11 11 10 9 11 7 10 11 12 11 9 11 8 7 8
12 12 11 9 11 7 7 7 6 7 6 7 7 6 10 8 3 2 4 7 8 8 7 8 11 9 9 11 11 11 10 8 11 16 15 16 15 14 10 10 8 9 10
13 12 11 10 10 8 8 5 7 6 6 7 8 8 9 10 4 1 4 6 7 7 8 8 12 10 9 10 10 11 10 9 12 13 11 10 10 10 14 9 9 8 8
13 12 12 10 13 7 9 6 4 9 8 8 9 9 9 9 5 6 10 7 6 4 8 4 3 6 9 8 8 10 11 14 12 14 12 10 9 9 9 8 8 4 6
14 13 13 11 9 10 9 7 6 10 9 10 10 8 8 8 6 7 4 10 6 7 7 4 4 5 7 7 6 10 9 13 11 11 10 10 10 9 8 3 6 5 3
15 14 14 13 9 14 10 9 7 6 11 9 9 8 8 8 7 8 6 9 4 6 8 9 11 8 10 8 9 11 8 7 8 9 9 8 8 8 8 6 5 6 7
15 15 14 13 11 12 10 8 8 7 6 12 9 9 9 8 8 9 8 7 6 9 13 9 7 7 4 10 8 6 7 8 10 10 11 9 8 7 7 8 7 6 5
15 14 14 12 12 11 10 9 8 8 4 6 9 9 10 11 11 11 11 11 9 11 11 9 9 8 8 7 9 8 6 3 5 7 8 7 7 9 8 7 7 7 6
14 13 13 12 12 11 10 8 11 9 11 11 11 5 9 6 22 15 9 6 7 13 9 9 9 10 11 11 10 9 7 6 6 7 8 8 9 9 9 9 8 8 8
15 14 13 12 13 12 12 11 11 4 8 9 12 11 5 13 17 15 10 9 10 10 9 8 8 9 9 10 10 10 10 10 9 10 10 10 9 9 8 9 9 9 9
16 15 13 13 13 12 12 12 11 12 11 9 2 5 10 14 14 14 14 12 7 7 11 11 11 10 10 10 10 10 9 8 9 9 8 9 8 9 10 10 10 10 10
16 14 14 13 13 13 12 12 11 12 12 11 12 4 8 9 8 8 13 12 12 12 12 11 9 10 10 10 10 10 10 10 10 9 9 9 10 10 10 10 10 9 8
17 16 15 13 12 13 12 12 12 12 12 12 13 14 11 9 10 10 10 12 12 12 12 12 11 10 10 11 10 10 10 8 9 10 10 9 9 10 11 11 11 11 10
14 14 15 12 13 13 12 13 12 12 12 12 13 15 18 15 14 14 14 13 13 12 13 13 13 12 11 11 11 11 11 10 11 11 10 11 10 10 10 10 10 11 10
14 14 16 16 14 14 13 13 13 13 13 13 12 11 20 15 15 14 15 14 14 13 12 11 11 12 12 12 12 12 13 13 11 12 11 12 11 11 11 11 10 9 9
15 16 16 15 14 13 12 14 13 13 14 14 13 11 15 15 14 14 14 13 13 13 12 12 12 12 12 11 11 12 13 12 11 11 11 11 11 11 10 9 10 10 10
16 17 16 16 15 15 14 14 13 13 14 14 13 13 15 14 14 14 13 13 13 13 13 13 13 16 12 12 11 11 11 11 10 11 15 11 11 9 10 11 11 11 9
16 14 14 14 15 14 14 14 13 15 14 13 12 12 13 14 14 14 13 12 12 13 14 14 12 17 21 22 18 18 14 11 12 10 10 13 13 13 11 10 10 8 11
16 16 14 13 13 13 13 13 13 13 14 13 12 12 12 13 13 14 13 13 13 13 15 12 14 21 21 19 22 18 8 9 12 12 11 10 10 11 11 11 13 9 12
Wind_Direction
160 168 126 212 88 141 150 94 295 129 201 159 152 155 159 151 162 167 167 193 166 125 151 187 104 207 186 116 106 88 105 102 125 85 98 144 120 124 124 120 124 125 124
165 155 171 110 102 131 116 140 156 134 194 150 129 135 154 123 159 174 184 145 148 144 137 127 162 118 92 111 108 106 119 70 108 116 85 117 120 123 111 112 117 110 111
170 144 146 110 121 140 143 133 140 123 193 196 135 149 137 153 159 162 145 133 134 139 133 152 169 129 133 117 140 179 137 100 120 110 117 106 106 110 106 103 103 96 88
174 164 143 128 116 129 124 132 127 121 140 167 153 105 129 144 145 151 132 111 138 115 123 109 139 172 168 178 156 125 118 110 126 124 124 118 116 113 112 114 107 104 107
172 165 132 138 132 150 145 119 140 129 98 126 109 107 140 142 93 104 114 111 93 84 93 106 71 72 67 68 130 125 124 115 125 121 122 119 124 125 123 117 124 122 104
172 170 151 168 122 124 118 124 152 123 128 131 114 127 135 99 55 25 17 129 136 117 103 113 117 125 78 52 68 93 133 134 127 122 123 125 113 112 118 124 127 139 130
173 167 161 170 142 175 137 112 126 117 131 109 113 126 127 92 77 66 6 108 120 108 129 126 116 98 108 96 86 91 83 89 108 135 132 132 120 134 125 130 136 147 153
176 165 168 177 140 187 142 108 126 125 134 123 139 119 104 101 101 80 2 110 107 92 96 114 90 90 82 99 103 102 100 108 121 125 121 122 127 134 131 146 159 133 118
176 166 171 182 140 146 124 120 136 128 131 155 119 112 119 126 109 74 102 97 84 90 89 64 89 94 99 108 107 108 94 85 90 100 106 107 117 130 154 161 164 148 150
174 170 169 181 136 146 122 136 129 133 129 134 128 139 124 134 156 252 124 102 104 102 90 71 49 102 103 100 121 117 112 115 117 113 112 105 134 147 169 188 181 162 167
169 168 165 176 141 128 130 140 145 121 130 125 143 141 135 129 127 33 96 119 123 113 110 105 104 98 98 77 95 126 131 137 126 141 143 147 155 161 188 215 241 55 185
170 169 162 166 165 143 147 153 151 118 125 133 149 133 121 120 134 101 39 135 160 116 118 117 108 101 107 97 93 126 147 142 145 141 149 166 172 174 183 146 57 55 23
172 170 160 166 184 144 158 159 156 176 139 150 156 148 141 143 160 112 90 152 196 137 138 107 127 132 115 91 140 160 172 142 140 153 157 163 178 172 135 134 119 112 83
173 171 164 172 182 162 166 174 170 181 170 157 160 154 148 159 168 164 159 168 146 118 122 133 147 121 96 113 153 181 214 167 168 174 171 167 122 136 165 175 167 156 131
174 173 172 177 185 173 189 174 194 179 179 185 154 156 160 172 178 179 171 179 179 160 150 151 167 157 144 160 174 192 171 163 173 156 156 154 171 178 178 174 181 175 179
174 177 179 179 182 179 189 157 49 72 96 68 50 61 131 173 149 170 196 233 152 158 182 182 183 180 176 177 184 185 186 186 186 169 174 180 184 189 184 188 195 192 199
183 177 178 192 176 188 187 186 179 90 60 77 79 65 70 137 146 152 149 147 152 170 206 197 206 196 197 194 196 192 195 186 204 194 187 194 195 198 183 195 204 202 215
189 174 186 197 179 194 189 194 187 181 184 185 160 91 121 142 147 144 145 143 165 211 215 220 209 194 207 206 206 207 203 191 204 207 204 200 205 204 200 210 209 213 215
185 184 198 189 188 190 188 194 198 187 187 188 172 135 113 90 103 135 167 196 192 199 214 237 216 203 206 212 212 213 209 206 196 207 210 209 207 213 215 212 224 215 214
184 195 196 183 192 187 194 196 198 201 189 192 184 182 162 153 175 185 198 216 211 205 211 220 231 217 215 214 213 215 216 209 205 202 216 219 216 216 225 218 222 220 206
189 190 189 202 198 189 197 195 200 200 199 200 197 182 170 192 194 195 197 210 222 227 221 214 216 223 223 217 217 217 217 213 209 213 216 221 219 221 220 232 219 224 195
196 193 188 211 195 192 197 200 202 204 204 201 204 182 159 187 205 205 206 206 213 223 235 223 225 224 220 218 222 219 222 219 214 206 214 221 220 219 222 221 230 221 187
205 199 186 205 209 195 186 200 203 208 209 208 205 182 179 193 207 210 210 207 204 210 218 234 236 228 224 220 216 220 227 226 220 214 211 216 223 224 220 216 224 227 184
218 201 195 197 216 198 196 201 204 206 212 213 209 212 181 200 205 219 213 209 208 204 207 216 224 235 232 230 222 219 222 233 229 228 221 220 225 225 223 220 213 220 169
221 210 203 191 212 211 196 196 208 204 205 216 212 211 218 193 204 213 218 224 210 211 212 210 214 221 230 234 230 228 225 190 217 241 235 220 220 224 224 212 206 180 175
226 235 205 198 200 215 210 196 202 210 212 203 216 211 212 220 206 200 211 220 229 223 214 218 219 223 226 228 233 235 214 182 192 205 226 243 224 221 230 199 196 183 161